TimePST,TemperatureF,Dew PointF,Humidity,Sea Level PressureIn,VisibilityMPH,Wind Direction,Wind SpeedMPH,Gust SpeedMPH,PrecipitationIn,Events,Conditions,WindDirDegrees,DateUTC
12:55 AM,53.1,34.0,48,30.12,10.0,Calm,Calm,-,N/A,,Clear,0,2013-12-02 08:55:00
1:55 AM,53.1,33.1,47,30.11,10.0,Calm,Calm,-,N/A,,Clear,0,2013-12-02 09:55:00
2:55 AM,55.9,32.0,40,30.09,10.0,Calm,Calm,-,N/A,,Clear,0,2013-12-02 10:55:00
3:55 AM,50.0,33.1,52,30.07,10.0,Calm,Calm,-,N/A,,Clear,0,2013-12-02 11:55:00
4:55 AM,53.1,32.0,45,30.09,10.0,Calm,Calm,-,N/A,,Clear,0,2013-12-02 12:55:00
5:55 AM,50.0,34.0,54,30.11,10.0,Calm,Calm,-,N/A,,Clear,0,2013-12-02 13:55:00
6:55 AM,48.9,34.0,56,30.11,10.0,NNE,4.6,-,N/A,,Clear,20,2013-12-02 14:55:00
7:55 AM,52.0,37.9,59,30.10,10.0,Calm,Calm,-,N/A,,Clear,0,2013-12-02 15:55:00
8:55 AM,60.1,37.0,42,30.10,10.0,Calm,Calm,-,N/A,,Clear,0,2013-12-02 16:55:00
9:55 AM,64.0,41.0,43,30.09,10.0,Calm,Calm,-,N/A,,Clear,0,2013-12-02 17:55:00
10:55 AM,69.1,34.0,27,30.09,10.0,Calm,Calm,-,N/A,,Clear,0,2013-12-02 18:55:00
11:55 AM,71.1,37.9,30,30.06,10.0,SW,6.9,-,N/A,,Clear,220,2013-12-02 19:55:00
12:55 PM,69.1,41.0,36,30.04,10.0,SSW,8.1,-,N/A,,Clear,200,2013-12-02 20:55:00
1:55 PM,69.1,46.0,44,30.00,10.0,SW,4.6,-,N/A,,Clear,220,2013-12-02 21:55:00
2:55 PM,66.9,48.9,52,29.98,10.0,SW,4.6,-,N/A,,Clear,230,2013-12-02 22:55:00
3:55 PM,64.9,48.9,56,29.97,10.0,Calm,Calm,-,N/A,,Clear,0,2013-12-02 23:55:00
4:55 PM,62.1,51.1,67,29.96,10.0,Calm,Calm,-,N/A,,Clear,0,2013-12-03 00:55:00
5:55 PM,59.0,51.1,75,29.97,10.0,Calm,Calm,-,N/A,,Clear,0,2013-12-03 01:55:00
6:55 PM,55.9,50.0,80,29.97,10.0,Calm,Calm,-,N/A,,Clear,0,2013-12-03 02:55:00
7:55 PM,52.0,43.0,71,29.95,10.0,ENE,6.9,-,N/A,,Clear,60,2013-12-03 03:55:00
8:55 PM,52.0,42.1,69,29.95,10.0,Variable,4.6,-,N/A,,Clear,0,2013-12-03 04:55:00
9:55 PM,48.9,42.1,77,29.94,10.0,Calm,Calm,-,N/A,,Clear,0,2013-12-03 05:55:00
10:55 PM,46.9,42.1,83,29.94,10.0,Calm,Calm,-,N/A,,Clear,0,2013-12-03 06:55:00
11:55 PM,48.0,41.0,77,29.92,10.0,North,3.5,-,N/A,,Clear,10,2013-12-03 07:55:00